loading
DOY 198 | 2024-07-16T12:40:31Z

TIROS 6 DEB, 29006

Orbit data source: Space-Track

TIROS 6 DEB, 29006 is space debris in LEO originally from a launch on Tue, 18 Sep 1962 UTC launched from the Air Force Eastern Test Range (AFETR). Debris objects in space refer to the collection of defunct objects orbiting the Earth. Examples of debris include non-operational satellites, rocket bodies, and fragments generated from explosions, collisions, or faulty payload assembly.

Loading next visibility...
Loading greatness...
TIROS 6 DEB details
NORAD ID29006
COSPAR ID
1962-047F
Orbit
LEO
Last TLE update6 days ago
Origin
Flag of USGSFC (US)
ManufacturerUnknown
BusUnknown
MotorUnknown
MassWet unknown, Dry mass unknown
Launch date (UTC)
1962-09-18 (62 years ago)
Launch vehicleUnknown
Launch site
Air Force Eastern Test Range (AFETR)
Object type
Payload
Rocket body
Debris
Radar Cross SectionSmall (<0.1 m²)
Predictive object data (real-time)
Latitude22.61345°
Longitude152.92938°
Altitude616.976 km
Speed7.554 km/s
Apparent Right ascension12h 20m 08s
Apparent Declination-7° 11' 14"
Sunlit
Object is in daylight
Predictive observer data (real-time)
Local Sidereal Time01:19:25
Azimuth26.039° NE
Elevation-54.678°
Doppler factor1
Orbital elements
Apogee628.637 km
Perigee606.199 km
Semi-major axis6,995.555 km
Eccentricity0.0016037
Inclination58.3088°
RAAN182.7771°
Arg. of periapsis97.2405°
True anomaly262.86373°
Mean anomaly263.0461°
Mean motion3.70945 °/min
BSTAR0.00013026
Period97.05 mins
Definitive object data (Epoch: 2024-07-10T06:09:01.868Z)
Latitude-0.00005°
Longitude161.85542°
Altitude620.738 km
Speed7.549 km/s
True Right ascension12h 11m 06s
True Declination0° 00' 00"
Sunlit
Object was in daylight at TLE epoch
TLE from 6 days ago
0 TIROS 6 DEB
1 29006U 62047F   24192.25627163  .00000875  00000-0  13026-3 0  9991
2 29006  58.3088 182.7771 0016037  97.2405 263.0461 14.83609051596625
Epoch: 2024-07-10T06:09Z
No data available

TIROS 6 DEB Visibility forecast

Observer location: 39.9160978°, -105.1181434

TIROS 6 DEB is not visible in the next 10 days
Span
Click to sort rows by Start time (UTC) header in descending order
Start Az.
Max El. time (UTC)
Max El. Az.
Max El.
End time (UTC)
End Az.